View from above orbital plane
|
View from above satellite
|
Ground track
|
The orbit data is extracted from the following two-line orbital elements,
1 39436U 13066W 18110.87698945 .00471227 00000-0 27549-2 0 9990
2 39436 97.7124 243.4336 0005382 290.5543 69.5144 15.77058077244329
Epoch (UTC): | 20 April 2018 21:02:51 |
Eccentricity: | 0.0005382 |
inclination: | 97.7124° |
perigee height: | 335 km |
apogee height: | 342 km |
right ascension of ascending node: | 243.4336° |
argument of perigee: | 290.5543° |
revolutions per day: | 15.77058077 |
mean anomaly at epoch: | 69.5144° |
orbit number at epoch: | 24432 |
The dashed part of the orbit path shows where the satellite is in the earth's shadow,
|
|